Other Public Products
Issued by NWS Grand Forks, ND

Home | Current Version | Previous Version | Text Only | Print | Product List | Glossary On
Versions: 1 2 3 4 5 6 7 8 9 10 11 12 13 14 15 16 17 18 19 20 21 22 23 24 25 26 27 28 29 30 31 32 33 34 35 36 37 38 39 40 41 42 43 44 45 46 47 48 49 50
000
FPUS83 KFGF 251810
OPUFGF
NATIONAL WEATHER SERVICE EASTERN NORTH DAKOTA/GRAND FORKS ND
100 PM CDT MON MAY 25 2015

 **SATELLITE DATA USED TO AUGMENT SKY COVER AT AUTOMATED STATIONS**
 *****  WEATHER ACROSS EASTERN NORTH DAKOTA  *****

CITY           SKY/WX    TMP DP  RH WIND       PRES   REMARKS
GRAND FORKS    CLOUDY    68  51  54 N5        29.75F
6HR MIN TEMP:  56; 6HR MAX TEMP:  68;

GRAND FORKS AF CLOUDY    70  50  50 NE7       29.76F
GRAND CITY NWS   N/A     64 N/A N/A MISG        N/A
BUXTON         NOT AVBL
DEVILS LAKE    PTSUNNY   75  43  31 NE14G25   29.78F
6HR MIN TEMP:  57; 6HR MAX TEMP:  75;

FARGO          LGT RAIN  65  57  75 NE13      29.77F
6HR MIN TEMP:  58; 6HR MAX TEMP:  65; 6HR PCP:  0.10;

WAHPETON ARPT  CLOUDY    59  52  77 NE18G25   29.74S
$$

 *****  WEATHER ACROSS CENTRAL AND WESTERN NORTH DAKOTA  *****

CITY           SKY/WX    TMP DP  RH WIND       PRES   REMARKS
JAMESTOWN      PTSUNNY   68  56  65 VRB6      29.80S
6HR MIN TEMP:  57; 6HR MAX TEMP:  68; 6HR PCP:  0.02;

BISMARCK       CLOUDY    66  53  63 SE5       29.86S
6HR MIN TEMP:  56; 6HR MAX TEMP:  66; 6HR PCP:  0.17;

MINOT          MOSUNNY   75  44  33 NW5       29.83F
6HR MIN TEMP:  54; 6HR MAX TEMP:  76;

MINOT AFB      MOSUNNY   80  46  30 E3        29.82F
6HR MIN TEMP:  52; 6HR MAX TEMP:  80;

GARRISON         N/A     70  49  47 VRB3      29.85S
6HR MIN TEMP:  55; 6HR MAX TEMP:  70;

WILLISTON      PTSUNNY   76  47  35 MISG      29.86F
6HR MIN TEMP:  48; 6HR MAX TEMP:  76;

DICKINSON      CLOUDY    60  53  77 E8        29.88S
6HR MIN TEMP:  54; 6HR MAX TEMP:  60; 6HR PCP:  0.02;

HETTINGER      LGT RAIN  55  52  89 E13       29.89R FOG
6HR MIN TEMP:  53; 6HR MAX TEMP:  56; 6HR PCP:  0.04;

$$

 *****  OTHER OBSERVATIONS NORTHEAST NORTH DAKOTA  *****

CITY           SKY/WX    TMP DP  RH WIND       PRES   REMARKS
WALHALLA         N/A     75  41  29 NE6       29.78F
LANGDON        FAIR      77  41  27 NE14      29.81S
CAVALIER       FAIR      75  39  27 NE6       29.77F
GRAFTON        FAIR      72  46  40 N12       29.76F
CANDO          FAIR      77  37  24 NE13G18   29.80F
FORT TOTTEN      N/A     74  49  40 N5        29.95
ROLLA            N/A     77  36  22 N9G20     29.83F
RUGBY          NOT AVBL
 ***** THE ABOVE OBSERVATIONS ARE NON NWS ARE NOT QUALITY
        CONTROLLED AND MAY MIS-REPORT RAIN FOR SNOW...
$$

 *****  OTHER OBSERVATIONS SOUTHEAST NORTH DAKOTA *****

CITY           SKY/WX    TMP DP  RH WIND       PRES   REMARKS
COOPERSTOWN    NOT AVBL
VALLEY CITY    MOCLDY    64  59  82 W3        29.80S
OAKES            N/A     64  55  72 NE23G31   29.79R
GWINNER        NOT AVBL
BUFFALO        NOT AVBL
WYNDMERE         N/A     61  55  82 NE16        N/A
 ***** THE ABOVE OBSERVATIONS ARE NON NWS ARE NOT QUALITY
       CONTROLLED AND MAY MIS-REPORT RAIN FOR SNOW...
$$

  *****  WEATHER ACROSS NORTHERN MINNESOTA  *****

CITY           SKY/WX    TMP DP  RH WIND       PRES   REMARKS
FLAG ISLAND    CLOUDY    64  48  55 CALM      29.75F
WARROAD        CLOUDY    64  52  63 NE7       29.77S
ROSEAU         CLOUDY    72  50  46 E8        29.75S
HALLOCK        CLOUDY    72  46  40 NE7       29.76S
THF RVR FALLS  CLOUDY    64  52  63 CALM      29.78R
6HR MIN TEMP:  55; 6HR MAX TEMP:  64;

HALSTAD        NOT AVBL
FOSSTON        LGT RAIN  61  54  77 CALM      29.79F
BAUDETTE       CLOUDY    64  55  72 SW5       29.77S
6HR MIN TEMP:  53; 6HR MAX TEMP:  64;

WASKISH        DRIZZLE   63  55  77 CALM      29.77F
CROOKSTON      CLOUDY    68  54  60 CALM      29.77S
$$
  *****  WEATHER ACROSS CENTRAL AND WEST MINNESOTA  *****

CITY           SKY/WX    TMP DP  RH WIND       PRES   REMARKS
BEMIDJI        LGT RAIN  58  55  90 N6        29.77R
PARK RAPIDS    RAIN      58  55  90 N10G21    29.71S FOG
6HR MIN TEMP:  57; 6HR MAX TEMP:  59; 6HR PCP:  0.60;

WADENA         RAIN      57  55  94 NE14      29.68S
DETROIT LAKES  RAIN      55  54  94 N9        29.76F
MOORHEAD       CLOUDY    63  55  77 NE14G25   29.78S
FERGUS FALLS   LGT RAIN  57  55  94 NE18G35   29.72S
ELBOW LAKE     LGT RAIN  58  56  93 N16G24    29.69S
6HR MIN TEMP:  56; 6HR MAX TEMP:  58; 6HR PCP:  0.65;

MORRIS MN      CLOUDY    63  59  88 N14       29.68S
STAPLES        DRIZZLE   57  57 100 N6        29.67S
WHEATON        CLOUDY    57  54  88 N18G26    29.74R
$$
  *****  WEATHER ELSEWHERE ACROSS MINNESOTA  *****

CITY           SKY/WX    TMP DP  RH WIND       PRES   REMARKS
DULUTH         FOG       54  53  97 E15G24    29.69S VSB 1/4
6HR MIN TEMP:  54; 6HR MAX TEMP:  59; 6HR PCP:  0.31;

INTRNTL FALLS  LGT RAIN  65  52  62 E3        29.77F
6HR MIN TEMP:  55; 6HR MAX TEMP:  65; 6HR PCP: TRACE;

ELY            RAIN      57  55  94 NE3       29.75S
CLOQUET        CLOUDY    54  52  94 E13       29.69S FOG
BRAINERD       LGT RAIN  58  57  97 E5        29.67S FOG
6HR MIN TEMP:  57; 6HR MAX TEMP:  58; 6HR PCP:  0.27;

HIBBING        RAIN      59  55  87 NE12      29.71R FOG
6HR MIN TEMP:  57; 6HR MAX TEMP:  59; 6HR PCP:  0.27;

ALEXANDRIA     CLOUDY    60  56  86 CALM      29.69R
6HR MIN TEMP:  57; 6HR MAX TEMP:  60; 6HR PCP:  0.27;

SAINT CLOUD    CLOUDY    62  57  83 SW13      29.67R
6HR MIN TEMP:  57; 6HR MAX TEMP:  62; 6HR PCP:  0.02;

MINNEAPOLIS    CLOUDY    66  57  72 SW16G24   29.71R
6HR MIN TEMP:  57; 6HR MAX TEMP:  66;

$$

  *****  WEATHER ACROSS SOUTH DAKOTA  *****

CITY           SKY/WX    TMP DP  RH WIND       PRES   REMARKS
SIOUX FALLS    PTSUNNY   66  58  75 SW7       29.74F
6HR MIN TEMP:  59; 6HR MAX TEMP:  66;

BROOKINGS      CLOUDY    63  55  77 W10       29.75F
WATERTOWN      CLOUDY    60  55  83 N13G21    29.75S
6HR MIN TEMP:  57; 6HR MAX TEMP:  61;

HURON          CLOUDY    61  56  83 N12       29.75F
6HR MIN TEMP:  57; 6HR MAX TEMP:  64; 6HR PCP:  0.01;

SISSETON         N/A     60  56  86 NE20G25   29.75R
ABERDEEN       CLOUDY    63  54  72 NE17      29.79S
6HR MIN TEMP:  57; 6HR MAX TEMP:  64; 6HR PCP:  0.02;

MITCHELL       CLOUDY    64  58  80 S3        29.76S
PIERRE         CLOUDY    60  55  83 E9        29.78R
6HR MIN TEMP:  56; 6HR MAX TEMP:  61;

MOBRIDGE       LGT RAIN  61  58  90 E13       29.81S
RAPID CITY     PTSUNNY   60  53  77 N18       29.83R
6HR MIN TEMP:  51; 6HR MAX TEMP:  63;

$$

  *****  SOME WEATHER IN NEARBY STATES *****

CITY           SKY/WX    TMP DP  RH WIND       PRES   REMARKS
GLASGOW MT     SUNNY     74  42  31 VRB6      29.86S
6HR MIN TEMP:  51; 6HR MAX TEMP:  75;

GREAT FALLS MT SUNNY     65  46  50 VRB5      29.90F
6HR MIN TEMP:  43; 6HR MAX TEMP:  65;

CHEYENNE WY    CLOUDY    53  39  59 NW20G31   29.93S
6HR MIN TEMP:  43; 6HR MAX TEMP:  54; 6HR PCP: TRACE;

SCOTTSBLUFF NE RAIN      53  51  93 W13       29.87R FOG
6HR MIN TEMP:  50; 6HR MAX TEMP:  53; 6HR PCP:  0.39;

OMAHA NE       MOSUNNY   75  56  51 SW10G20   29.80R
6HR MIN TEMP:  62; 6HR MAX TEMP:  75;

DES MOINES IA  MOSUNNY   77  59  53 SW17G26   29.83R
6HR MIN TEMP:  64; 6HR MAX TEMP:  78;

DAVENPORT IA   MOSUNNY   75  63  66 SW18      29.88F
6HR MIN TEMP:  64; 6HR MAX TEMP:  75; 6HR PCP: TRACE;

CHICAGO IL     CLOUDY    71  64  78 SW15G21   29.89R
6HR MIN TEMP:  67; 6HR MAX TEMP:  73; 6HR PCP:  0.07;

EAU CLAIRE WI  CLOUDY    68  60  75 SW16G22   29.71R
6HR MIN TEMP:  58; 6HR MAX TEMP:  68; 6HR PCP: TRACE;

LA CROSSE WI   PTSUNNY   77  60  55 SW17G28   29.74S
6HR MIN TEMP:  65; 6HR MAX TEMP:  77; 6HR PCP: TRACE;

$$

  *****  SOME NATIONAL WEATHER *****

CITY           SKY/WX    TMP DP  RH WIND       PRES   REMARKS
LA GUARDIA NY  MOSUNNY   82  58  43 S13       30.20F


USA.gov is the U.S. government's official web portal to all federal, state and local government web resources and services.